www.pogodaiklimat.ru

Погода и климат >> Архив погоды >> Австралия >> Troughton Island


ПОГОДА в Troughton Island

  • Прогноз погоды в Troughton Island
  • Монитор погоды в Troughton Island
  • Климат города

АРХИВ ПОГОДЫ в Troughton Island

Время (UTC), дата Ветер
(напр.,м/с)
 
Видим.   Явления Облачность Т
(С)
Тd
(С)
f
(%)
Тe
(С)
Тes
(С)
Комфортность P
(гПа)
Po
(гПа)
Тmin
(С)
Tmax
(С)
R
(мм)
R24
(мм)
S
(см)
04 15.10 З 9 н/о н/о +31.2 +25.3 71 +45 +45 опасность
перегрева
1010.3 1009.4
06 15.10 З 9 н/о н/о +30.8 +24.7 70 +44 +44 опасность
перегрева
1008.8 1007.9
07 15.10 З 10 н/о н/о +30.0 +25.1 75 +43 +43 опасность
перегрева
1008.2 1007.3
09 15.10 З 9 н/о н/о +28.5 +24.3 78 +40 +40 очень
душно
1009.0 1008.1
10 15.10 З 6 н/о н/о +28.0 +23.6 77 +38 +38 очень
душно
1010.5 1009.6
12 15.10 З 6 н/о н/о +27.5 +24.4 83 +39 +39 очень
душно
1011.6 1010.7
13 15.10 З 6 н/о н/о +27.5 +24.7 85 +39 +39 очень
душно
1011.9 1011.0 +32.2
15 15.10 З 8 н/о н/о +27.3 +24.9 87 +39 +39 очень
душно
1010.8 1009.9
16 15.10 З 8 н/о н/о +27.3 +25.1 88 +39 +39 очень
душно
1009.8 1008.9
18 15.10 З 10 н/о н/о +27.2 +25.2 89 +39 +39 очень
душно
1008.7 1007.8
19 15.10 З 9 н/о н/о +27.2 +25.0 88 +39 +39 очень
душно
1008.9 1008.0
21 15.10 З 9 н/о н/о +27.4 +25.4 89 +40 +40 очень
душно
1009.6 1008.7
22 15.10 ЮЗ 8 н/о н/о +27.7 +25.3 87 +40 +40 очень
душно
1010.2 1009.3
00 16.10 ЮЗ 7 н/о н/о +30.6 +25.2 73 +44 +44 опасность
перегрева
1010.8 1009.9
01 16.10 ЮЗ 6 н/о н/о +31.0 +24.4 68 +43 +43 опасность
перегрева
1010.7 1009.8 +27.1
03 16.10 ЮЗ 4 н/о н/о +31.4 +24.0 65 +43 +43 опасность
перегрева
1009.5 1008.6
04 16.10 СЗ 5 н/о н/о +31.5 +25.4 70 +46 +46 опасность
перегрева
1008.6 1007.7
06 16.10 СЗ 5 н/о н/о +31.1 +25.2 71 +45 +45 опасность
перегрева
1007.4 1006.5
07 16.10 СЗ 6 н/о н/о +30.8 +26.1 76 +46 +46 опасность
перегрева
1007.1 1006.2
09 16.10 З 6 н/о н/о +29.1 +25.9 83 +44 +44 опасность
перегрева
1008.0 1007.1
10 16.10 З 5 н/о н/о +28.3 +25.9 87 +42 +42 опасность
перегрева
1008.8 1007.9
12 16.10 З 5 н/о н/о +27.8 +25.6 88 +41 +41 опасность
перегрева
1010.1 1009.2
13 16.10 З 4 н/о н/о +27.8 +25.8 89 +41 +41 опасность
перегрева
1010.6 1009.7 +33.0
15 16.10 ЮЗ 2 н/о н/о +27.7 +25.7 89 +41 +41 опасность
перегрева
1010.5 1009.6
16 16.10 штиль 0 н/о н/о +27.5 +25.7 90 +41 +41 опасность
перегрева
1010.0 1009.1
18 16.10 С 4 н/о н/о +27.4 +25.4 89 +40 +40 очень
душно
1009.0 1008.1
19 16.10 С 4 н/о н/о +27.4 +25.2 88 +40 +40 очень
душно
1008.8 1007.9
21 16.10 СЗ 4 н/о н/о +27.1 +25.3 90 +39 +39 очень
душно
1009.8 1008.9
22 16.10 СЗ 4 н/о н/о +27.8 +25.4 87 +41 +41 опасность
перегрева
1010.3 1009.4
00 17.10 В 3 н/о н/о +29.7 +24.6 74 +42 +42 опасность
перегрева
1011.6 1010.7
01 17.10 СВ 4 н/о н/о +29.3 +24.2 74 +41 +41 опасность
перегрева
1011.7 1010.8
03 17.10 С 5 н/о н/о +30.7 +24.8 71 +44 +44 опасность
перегрева
1011.2 1010.3
04 17.10 С 5 н/о н/о +30.6 +25.0 72 +44 +44 опасность
перегрева
1010.4 1009.5
06 17.10 СВ 6 н/о н/о +32.1 +24.4 64 +45 +45 опасность
перегрева
1009.2 1008.3
07 17.10 СВ 6 н/о н/о +30.6 +24.7 71 +43 +43 опасность
перегрева
1008.7 1007.8
09 17.10 С 6 н/о н/о +29.3 +24.8 77 +42 +42 опасность
перегрева
1009.2 1008.3
10 17.10 С 5 н/о н/о +29.0 +24.6 77 +41 +41 опасность
перегрева
1009.6 1008.7
12 17.10 С 4 н/о н/о +28.5 +25.1 82 +41 +41 опасность
перегрева
1010.7 1009.8
13 17.10 С 4 н/о н/о +28.3 +24.7 81 +40 +40 очень
душно
1011.2 1010.3
15 17.10 С 4 н/о н/о +28.2 +25.0 83 +41 +41 опасность
перегрева
1011.1 1010.2
16 17.10 С 4 н/о н/о +28.2 +25.2 84 +41 +41 опасность
перегрева
1010.6 1009.7
18 17.10 С 4 н/о н/о +27.8 +24.6 83 +39 +39 очень
душно
1009.7 1008.8
19 17.10 С 4 н/о н/о +27.5 +24.6 84 +39 +39 очень
душно
1009.8 1008.9
21 17.10 З 4 н/о н/о +27.5 +24.7 85 +39 +39 очень
душно
1010.3 1009.4
22 17.10 Ю 3 н/о н/о +28.1 +24.7 82 +40 +40 очень
душно
1011.4 1010.5
00 18.10 Ю 3 н/о н/о +29.7 +24.1 72 +41 +41 опасность
перегрева
1013.0 1012.1
01 18.10 СЗ 3 н/о н/о +30.3 +23.7 68 +41 +41 опасность
перегрева
1013.1 1012.2 +27.3
03 18.10 ЮЗ 3 н/о н/о +31.3 +24.7 68 +44 +44 опасность
перегрева
1012.5 1011.6
04 18.10 СВ 4 н/о н/о +31.6 +24.7 67 +45 +45 опасность
перегрева
1011.6 1010.7
06 18.10 СЗ 5 н/о н/о +31.6 +24.2 65 +44 +44 опасность
перегрева
1010.3 1009.4
07 18.10 С 5 н/о н/о +31.3 +23.9 65 +43 +43 опасность
перегрева
1010.3 1009.4
09 18.10 С 4 н/о н/о +29.7 +23.6 70 +41 +41 опасность
перегрева
1011.2 1010.3
10 18.10 С 4 н/о н/о +28.8 +23.9 75 +40 +40 очень
душно
1011.6 1010.7
12 18.10 СЗ 2 н/о н/о +28.3 +24.1 78 +39 +39 очень
душно
1013.2 1012.3
13 18.10 СЗ 3 н/о н/о +28.2 +23.8 77 +39 +39 очень
душно
1013.1 1012.2 +32.4
15 18.10 СЗ 3 н/о н/о +27.8 +23.4 77 +38 +38 очень
душно
1013.4 1012.5
16 18.10 З 3 н/о н/о +27.8 +23.0 75 +37 +37 очень
душно
1012.7 1011.8
18 18.10 СЗ 3 н/о н/о +27.4 +23.6 80 +37 +37 очень
душно
1011.6 1010.7
19 18.10 СЗ 4 н/о н/о +27.6 +23.4 78 +37 +37 очень
душно
1011.4 1010.5
21 18.10 З 4 н/о н/о +27.6 +23.4 78 +37 +37 очень
душно
1012.2 1011.3
22 18.10 Ю 3 н/о н/о +28.2 +23.1 74 +38 +38 очень
душно
1013.3 1012.4
00 19.10 Ю 2 н/о н/о +30.0 +23.7 69 +41 +41 опасность
перегрева
1014.6 1013.7
01 19.10 З 3 н/о н/о +30.3 +23.5 67 +41 +41 опасность
перегрева
1014.5 1013.6 +27.3
03 19.10 ЮЗ 5 н/о н/о +32.4 +24.7 64 +45 +45 опасность
перегрева
1013.3 1012.4
04 19.10 ЮЗ 4 н/о н/о +31.5 +23.6 63 +43 +43 опасность
перегрева
1012.4 1011.5
06 19.10 З 4 н/о н/о +31.8 +23.6 62 +43 +43 опасность
перегрева
1011.1 1010.2
07 19.10 З 5 н/о н/о +31.4 +23.8 64 +43 +43 опасность
перегрева
1010.7 1009.8
09 19.10 З 5 н/о н/о +29.7 +24.1 72 +41 +41 опасность
перегрева
1010.9 1010.0
10 19.10 З 5 н/о н/о +28.7 +23.6 74 +39 +39 очень
душно
1011.7 1010.8
12 19.10 З 6 н/о н/о +28.6 +24.6 79 +41 +41 опасность
перегрева
1012.7 1011.8
13 19.10 З 7 н/о н/о +28.5 +23.9 76 +39 +39 очень
душно
1013.2 1012.3 +32.8
15 19.10 ЮЗ 8 н/о н/о +28.1 +24.5 81 +40 +40 очень
душно
1013.0 1012.1
16 19.10 ЮЗ 7 н/о н/о +27.9 +24.5 82 +39 +39 очень
душно
1012.3 1011.4
18 19.10 З 5 н/о н/о +27.8 +24.4 82 +39 +39 очень
душно
1011.3 1010.4
19 19.10 З 6 н/о н/о +27.6 +24.8 85 +39 +39 очень
душно
1011.3 1010.4
21 19.10 З 5 н/о н/о +27.6 +24.6 84 +39 +39 очень
душно
1012.3 1011.4
22 19.10 З 6 н/о н/о +28.0 +24.6 82 +40 +40 очень
душно
1012.6 1011.7
00 20.10 З 7 н/о н/о +30.0 +25.1 75 +43 +43 опасность
перегрева
1013.7 1012.8
01 20.10 ЮЗ 6 н/о н/о +30.2 +24.4 71 +42 +42 опасность
перегрева
1013.7 1012.8
03 20.10 З 7 н/о н/о +31.4 +25.3 70 +45 +45 опасность
перегрева
1012.6 1011.7
04 20.10 З 7 н/о н/о +31.6 +25.5 70 +46 +46 опасность
перегрева
1011.9 1011.0
06 20.10 З 8 н/о н/о +31.3 +25.4 71 +46 +46 опасность
перегрева
1010.1 1009.2
07 20.10 З 9 н/о н/о +30.5 +25.1 73 +44 +44 опасность
перегрева
1009.7 1008.8
09 20.10 З 8 н/о н/о +28.9 +24.7 78 +41 +41 опасность
перегрева
1010.4 1009.5
10 20.10 З 7 н/о н/о +28.3 +24.7 81 +40 +40 очень
душно
1011.3 1010.4
12 20.10 З 7 н/о н/о +28.2 +24.6 81 +40 +40 очень
душно
1012.6 1011.7
13 20.10 З 7 н/о н/о +28.3 +24.9 82 +41 +41 опасность
перегрева
1013.0 1012.1
15 20.10 З 8 н/о н/о +28.1 +24.9 83 +40 +40 очень
душно
1011.9 1011.0
16 20.10 З 8 н/о н/о +28.2 +25.0 83 +41 +41 опасность
перегрева
1011.3 1010.4
18 20.10 З 7 н/о н/о +28.1 +25.3 85 +41 +41 опасность
перегрева
1010.4 1009.5
19 20.10 З 6 н/о н/о +28.0 +24.8 83 +40 +40 очень
душно
1011.0 1010.1
21 20.10 З 7 н/о н/о +28.0 +24.6 82 +40 +40 очень
душно
1012.0 1011.1
22 20.10 З 8 н/о н/о +28.2 +24.8 82 +40 +40 очень
душно
1012.6 1011.7
00 21.10 З 7 н/о н/о +29.3 +24.8 77 +42 +42 опасность
перегрева
1013.6 1012.7
01 21.10 З 7 н/о н/о +30.4 +24.3 70 +42 +42 опасность
перегрева
1013.8 1012.9 +27.8
03 21.10 СЗ 7 н/о н/о +29.7 +24.8 75 +42 +42 опасность
перегрева
1012.5 1011.6
04 21.10 З 9 н/о н/о +29.6 +24.9 76 +42 +42 опасность
перегрева
1011.0 1010.1
06 21.10 З 9 н/о н/о +31.2 +24.8 69 +44 +44 опасность
перегрева
1009.4 1008.5
07 21.10 З 8 н/о н/о +30.4 +23.8 68 +42 +42 опасность
перегрева
1009.0 1008.1
09 21.10 З 7 н/о н/о +28.9 +24.9 79 +41 +41 опасность
перегрева
1009.4 1008.5
10 21.10 З 6 н/о н/о +28.2 +24.6 81 +40 +40 очень
душно
1010.5 1009.6
12 21.10 СЗ 6 н/о н/о +28.0 +24.4 81 +39 +39 очень
душно
1011.3 1010.4
13 21.10 СЗ 7 н/о н/о +27.9 +24.3 81 +39 +39 очень
душно
1011.8 1010.9 +31.7
15 21.10 З 6 н/о н/о +27.8 +24.2 81 +39 +39 очень
душно
1011.3 1010.4
16 21.10 З 7 н/о н/о +27.8 +24.6 83 +39 +39 очень
душно
1010.6 1009.7
18 21.10 З 7 н/о н/о +27.7 +23.9 80 +38 +38 очень
душно
1009.9 1009.0
19 21.10 З 7 н/о н/о +27.6 +23.8 80 +38 +38 очень
душно
1010.3 1009.4
21 21.10 З 6 н/о н/о +27.6 +24.0 81 +38 +38 очень
душно
1011.5 1010.6
22 21.10 З 6 н/о н/о +27.8 +23.8 79 +38 +38 очень
душно
1012.2 1011.3
00 22.10 З 4 н/о н/о +28.8 +23.2 72 +39 +39 очень
душно
1013.2 1012.3
01 22.10 З 5 н/о н/о +29.7 +23.2 68 +40 +40 очень
душно
1013.1 1012.2 +27.4
03 22.10 З 7 н/о н/о +29.3 +23.7 72 +40 +40 очень
душно
1011.7 1010.8
04 22.10 З 7 н/о н/о +31.3 +23.9 65 +43 +43 опасность
перегрева
1010.6 1009.7

 

Местоположение метеостанции Troughton Island (Западная Австралия, Австралия): широта -13.75 долгота 126.15 высота над уровнем моря 8 м.

В архиве по умолчанию представлена погода в Troughton Island за последнюю неделю. Архивные данные за месяц целиком и за предыдущие месяцы, начиная с января 2011 года, Вы можете получить, выбрав интересующий диапазон дат из раскрывающегося списка и нажав кнопку "Ввод!".


*Определитесь, кто Вы:
робот инопланетянин человек

Внимание! Время в таблицах - всемирное. Для получения местного времени необходимо прибавить поправку, которая в Troughton Island равна 8 ч.

Смотрите также архив погоды в соседних городах и на ближайших метеорологических станциях:

Погода в Truscott (Западная Австралия, Австралия) (44 км)
Погода в Kalumburu (Западная Австралия, Австралия) (82 км)
Погода в Browse Island (Западная Австралия, Австралия) (284 км)
Погода в Wyndham Aero (Западная Австралия, Австралия) (290 км)
Погода в Kununurra (Западная Австралия, Австралия) (356 км)
Погода в Port Keats Aero (Северная территория, Австралия) (369 км)
Погода в Adele Island (Западная Австралия, Австралия) (378 км)
Погода в Argyle Aero (Западная Австралия, Австралия) (404 км)
Погода в Bathurst Island (Северная территория, Австралия) (473 км)
Погода в Dum In Mirrie (Северная территория, Австралия) (474 км)

Пояснения к столбцам:

Ветер - указаны скорость ветра в м/с - средняя за 10 мин, порывы в срок и между сроками (в фигурных скобках) и направление, откуда дует ветер: С - северный, СВ - северо-восточный, В - восточный, ЮВ - юго-восточный, Ю - южный, ЮЗ - юго-западный, З - западный, СЗ - северо-западный.
Видимость - горизонтальная дальность видимости в метрах или километрах. При видимости от 1 до 10 км при отсутствии осадков обычно наблюдается дымка, при ухудшении видимости до 1 км и менее - туман. В сухую погоду видимость может ухудшаться дымом, пылью или мглою.
Явления - указаны атмосферные явления, наблюдавшиеся в срок или в последний час перед сроком; фигурными скобками обозначены явления, наблюдавшиеся между сроками (за 1-3 часа до срока); квадратными скобками обозначены град или гололедные отложения с указанием их диаметра в мм.
Облачность - указаны через наклонную черту общая и нижняя облачность в баллах и высота нижней границы облаков в метрах; квадратными скобками обозначены формы облаков: Ci - перистые, Cs - перисто-слоистые, Cc - перисто-кучевые, Ac - высококучевые, As - высокослоистые, Sc - слоисто-кучевые, Ns - слоисто-дождевые, Cu - кучевые, Cb - кучево-дождевые. Подробнее классификацию облаков см. в Атласе облаков (PDF).
T - Температура воздуха - температура, измеренная на высоте 2 м над землей.
Td - Температура точки росы - температура, при понижении до которой содержащийся в воздухе водяной пар достигнет насыщения.
f - Относительная влажность воздуха - влажноcть воздуха, измеренная на высоте 2 м над землей.
Te - Эффективная температура - температура, которую ощущает одетый по сезону человек в тени. Характеристика душности погоды. При расчете учитывается влияние влажности воздуха и скорости ветра на теплоощущения человека.
Tes - Эффективная температура на солнце - температура, которую ощущает человек, с поправкой на солнечный нагрев. Характеристика знойности погоды. Зависит от высоты солнца над горизонтом, облачности и скорости ветра. Ночью, в пасмурную погоду, а также при ветре 12 м/с и более поправка равна нулю.
P - Атмосферное давление - приведенное к уровню моря атмосферное давление.
Po - Атмосферное давление - измеренное на уровне метеостанции атмосферное давление.
Tmin - Минимальная температура - минимум температуры воздуха на высоте 2 м над землей.
Tmax - Максимальная температура - максимум температуры воздуха на высоте 2 м над землей.
R - Количество осадков - Количество выпавших осадков за период времени, мм. При наведении курсора мыши на число - период времени, за который выпало указанное количество осадков.
R24 - Количество осадков - Количество выпавших осадков за 24 часа, мм.
S - Снежный покров - Высота снежного покрова, см. При наведении курсора мыши на число - состояние снежного покрова и степень покрытия местности в баллах.